Other Surface Observations
Issued by NWS

Home | Current Version | Previous Version | Text Only | Print | Product List | Glossary On
Versions: 1 2 3 4 5 6 7 8 9 10 11 12 13 14 15 16 17 18 19 20 21 22 23 24 25 26 27 28 29 30 31 32 33 34 35 36 37 38 39 40 41 42 43 44 45 46 47 48 49 50
250
SXUS52 KTAE 262306
OSOTAE
OSOTAE
North Florida/South Alabama/Southwest Georgia Weather Roundup
National Weather Service Tallahassee Florida
700 PM EDT SUN MAR 26 2017

Note: "fair" indicates few or no clouds below 12,000 feet with no
significant weather and/or obstructions to visibility.

!FLZ017-115-028-034-025-270000
...North Florida...

CITY           SKY/WX    TMP DP  RH WIND       PRES   REMARKS
TALLAHASSEE    MOSUNNY   78  59  51 S13       30.07R
APALACHICOLA   SUNNY     72  68  87 S10       30.09S
PERRY          CLEAR     76  60  57 SW9       30.10R
CROSS CITY     PTCLDY    77  61  57 W9        30.08S
JACKSONVILLE   PTCLDY    73  58  59 SE12      30.10R
$$

!FLZ112-006-005-002-011-270000
...Florida Panhandle...

CITY           SKY/WX    TMP DP  RH WIND       PRES   REMARKS
MARIANNA       CLOUDY    72  68  87 CALM      30.05S
BONIFAY        NOT AVBL
PANAMA CITY NW FAIR      74  64  71 S10       30.07S
TYNDALL AFB    SUNNY     73  65  77 S12       30.07S
TYND DRONE APT FAIR      72  67  84 SE10G31   30.08R
DE FUNIAK SPR  MOCLDY    74  64  71 S8        30.07S
EGLIN AFB      MOSUNNY   72  67  85 S9        30.06F
DESTIN         SUNNY     73  71  93 SE7       30.06S
HURLBURT       MOSUNNY   73  68  85 S12       30.05S
CRESTVIEW      MOSUNNY   75  65  70 S13       30.07R
PENSACOLA      MOSUNNY   75  66  73 S12       30.04F
$$

!ALZ063-066-270000
...South Alabama...

CITY           SKY/WX    TMP DP  RH WIND       PRES   REMARKS
DOTHAN         CLOUDY    76  63  64 SW12      30.09R
OZARK CAIRNS   CLOUDY    75  65  70 SW10      30.05S
FT RUCKER HELI PTSUNNY   75  63  65 S7        30.05S
RUCKER HELI 3  PTSUNNY   74  62  65 S7        30.05S
RUCKER HELI 2  CLOUDY    75  62  65 SW3       30.04S
FLORALA APT    MOSUNNY   75  62  64 S7        30.06S
ANDALUSIA      CLOUDY    78  63  59 SE6       30.03F
TROY           SUNNY     78  60  53 S9        30.04S
EUFALA         FAIR      80  60  50 S5        30.03R
MOBILE         MOSUNNY   76  62  62 S14       30.03S
$$

!GAZ120>161-270000
...Southwest and South Central Georgia...

CITY           SKY/WX    TMP DP  RH WIND       PRES   REMARKS
THOMASVILLE    FAIR      79  63  57 SW8       30.07R
BAINBRIDGE     CLOUDY    70  64  83 W8        30.08R VSB 1
MOODY AFB      PTCLDY    78  59  50 SE6       30.05S
VALDOSTA       CLEAR     76  59  55 S6        30.07S
MOULTRIE       MOSUNNY   81  57  44 S7        30.06S
BLAKELY        CLOUDY    75  63  64 CALM      30.05F
ALBANY         PTSUNNY   82  54  37 S6        30.05S
TIFTON         PTSUNNY   78  58  49 SE6       30.06R
FITZGERALD     MOCLDY    81  60  48 SE5       30.08S
CORDELE        FAIR      84  54  35 SW3       30.05S
AMERICUS       FAIR      79  45  29 SW5       30.05S
HOMERVILLE     FAIR      79  59  50 SE5       30.08S
$$

!GMZ750-755-770-775-270000
...Coastal and Buoy Obs...

STATION/POSITION TIME  TEMP    WIND        PRES    VSBY  WAVE
                       AIR SEA DIR/SP/G                  HT/PER
                 (UTC) (F)     (DEG/KT/KT) (MB)    (MI)  (FT/S)
KEATON BEACH     2300   70     220/  5/  6 1018.8F
CEDAR KEY        2200   73     290/  9/ 11 1018.9F
C TOWER          2300   69     170/  8/  9 1019.4F
APALACHICOLA BUO 2150   71 71  160/  8/  8 1018.7          2/ 7
PANAMA CITY BUOY 2250   72 71              1018.5R         3/ 6
MOBILE BUOY      2250   73 74  150/  8/ 10 1017.0F         3/ 8
ORANGE BCH AL BU 2150   71 70  160/  8/  8 1017.4          3/ 5
$$




USA.gov is the U.S. government's official web portal to all federal, state and local government web resources and services.